TimeMST,TemperatureF,Dew PointF,Humidity,Sea Level PressureIn,VisibilityMPH,Wind Direction,Wind SpeedMPH,Gust SpeedMPH,PrecipitationIn,Events,Conditions,WindDirDegrees,DateUTC
12:53 AM,33.1,25.0,72,29.96,10.0,Calm,Calm,-,N/A,,Clear,0,2013-02-07 07:53:00
1:53 AM,30.9,23.0,72,29.98,10.0,Calm,Calm,-,N/A,,Clear,0,2013-02-07 08:53:00
2:53 AM,27.0,19.9,75,30.01,10.0,NE,4.6,-,N/A,,Clear,50,2013-02-07 09:53:00
3:53 AM,27.0,19.9,75,30.04,10.0,Calm,Calm,-,N/A,,Clear,0,2013-02-07 10:53:00
4:53 AM,26.1,19.0,75,30.05,10.0,NE,3.5,-,N/A,,Clear,50,2013-02-07 11:53:00
5:53 AM,27.0,21.0,78,30.09,10.0,Calm,Calm,-,N/A,,Clear,0,2013-02-07 12:53:00
6:53 AM,25.0,18.0,75,30.14,10.0,Calm,Calm,-,N/A,,Clear,0,2013-02-07 13:53:00
7:53 AM,26.1,19.9,78,30.22,10.0,ENE,3.5,-,N/A,,Clear,60,2013-02-07 14:53:00
8:53 AM,35.1,26.1,70,30.19,10.0,Calm,Calm,-,N/A,,Clear,0,2013-02-07 15:53:00
9:53 AM,42.1,28.0,58,30.14,10.0,Calm,Calm,-,N/A,,Clear,0,2013-02-07 16:53:00
10:53 AM,46.9,24.1,41,30.11,10.0,Calm,Calm,-,N/A,,Clear,0,2013-02-07 17:53:00
11:53 AM,48.9,19.9,32,30.10,10.0,West,5.8,-,N/A,,Clear,260,2013-02-07 18:53:00
12:53 PM,51.1,17.1,26,30.05,10.0,WSW,5.8,-,N/A,,Clear,240,2013-02-07 19:53:00
1:53 PM,52.0,15.1,23,30.03,10.0,Variable,4.6,-,N/A,,Clear,0,2013-02-07 20:53:00
2:53 PM,54.0,12.9,20,30.02,10.0,NNW,3.5,-,N/A,,Clear,340,2013-02-07 21:53:00
3:53 PM,55.0,9.0,16,30.01,9.0,Calm,Calm,-,N/A,,Clear,0,2013-02-07 22:53:00
4:53 PM,54.0,10.0,17,30.02,10.0,Calm,Calm,-,N/A,,Clear,0,2013-02-07 23:53:00
5:53 PM,46.0,17.1,31,30.06,10.0,Calm,Calm,-,N/A,,Clear,0,2013-02-08 00:53:00
6:53 PM,39.0,15.1,38,30.14,10.0,Calm,Calm,-,N/A,,Clear,0,2013-02-08 01:53:00
7:53 PM,35.1,14.0,42,30.16,10.0,East,4.6,-,N/A,,Clear,80,2013-02-08 02:53:00
8:53 PM,32.0,18.0,56,30.12,10.0,Calm,Calm,-,N/A,,Clear,0,2013-02-08 03:53:00
9:53 PM,32.0,17.1,54,30.07,10.0,Calm,Calm,-,N/A,,Mostly Cloudy,0,2013-02-08 04:53:00
10:53 PM,30.0,17.1,59,30.02,10.0,Calm,Calm,-,N/A,,Scattered Clouds,0,2013-02-08 05:53:00
11:53 PM,28.9,17.1,61,30.01,6.0,Calm,Calm,-,N/A,,Haze,0,2013-02-08 06:53:00